Regional Weather Roundup
Issued by NWS New Orleans/Baton Rouge, LA

Home | Current Version | Previous Version | Text Only | Print | Product List | Glossary Off
Versions: 1 2 3 4 5 6 7 8 9 10 11 12 13 14 15 16 17 18 19 20 21 22 23 24 25 26 27 28 29 30 31 32 33 34 35 36 37 38 39 40 41 42 43 44 45 46 47 48 49 50

910
ASUS44 KLIX 010505
RWRLIX
NEW ORLEANS REGIONAL WEATHER ROUNDUP
NATIONAL WEATHER SERVICE NEW ORLEANS LA
1200 AM CDT WED OCT 01 2014

NOTE: "FAIR" INDICATES FEW OR NO CLOUDS BELOW 12,000 FEET WITH NO
      SIGNIFICANT WEATHER AND/OR OBSTRUCTIONS TO VISIBILITY.
      SKY/WX - SKY CONDITION AND SIGNIFICANT WEATHER.
      TMP - AIR TEMPERATURE.     DP    - DEWPOINT TEMPERATURE.
      RH  - RELATIVE HUMIDITY.   PRES  - PRESSURE.
      HI  - HEAT INDEX.          WCI   - WIND CHILL INDEX.

*  THESE STATIONS ARE NOT NWS OR FAA STATIONS AND ARE NOT UNDER
   NWS QUALITY CONTROL.

LAZ038-040-048-061>063-065>067-069-010600-
SOUTHEAST LOUISIANA

CITY           SKY/WX    TMP DP  RH WIND       PRES   REMARKS
N.O. AUDUBON     N/A     78  74  88 MISG        N/A
N.O. INTL ARPT PTCLDY    77  72  84 SE6       29.88S
N.O. LAKEFRONT CLEAR     76  72  87 SE7       29.89S
N.O. DOWNTOWN*   N/A     77  70  78 SE6       29.89S
SLIDELL        CLEAR     72  69  90 CALM      29.88S
BATON ROUGE    CLEAR     74  71  91 E5        29.87S
BOOTHVILLE     CLEAR     77  74  90 E6        29.88F
BELLE CHASSE   PTCLDY    75  70  84 CALM      29.88S
BOGALUSA*        N/A     71  67  88 CALM      29.90F FOG
GALLIANO*      NOT AVBL
NEW ROADS*     CLOUDY    75  71  85 SE3       29.87S
GONZALES*        N/A     75  75 100 CALM      29.87S
HAMMOND*       NOT AVBL
HOUMA*         CLEAR    N/A N/A N/A CALM      29.86F
PORT FOURCHON* PTCLDY    81  73  78 SE9G16    29.90S

$$

MSZ070-080>082-010600-
SOUTHERN MISSISSIPPI

CITY           SKY/WX    TMP DP  RH WIND       PRES   REMARKS
MCCOMB         CLEAR     72  70  93 S3        29.89F FOG
GULFPORT       CLEAR     73  70  90 CALM      29.88S
BILOXI         CLEAR     76  71  86 E3        29.89S
PASCAGOULA     CLEAR     67  66  97 CALM      29.90S FOG

$$

COASTAL OBSERVATIONS
LAKE AND NEARSHORE STATIONS

STATION/POSITION TIME  TEMP    WIND        PRES    WAVE
                       AIR SEA DIR/SP/G            HT/PER
                 (UTC) (F)     (DEG/KT/KT) (MB)    (FT/S)
PASCAGOULA       0400   78     120/  5/  9 1011.7
WAVELAND YACHT   0400   78     150/ 11/ 12 1011.1
GRAND ISLE       0400   79 82  110/  6/ 11 1012.1
SOUTHWEST PASS   0400   80 85  100/ 15/ 16 1011.9
NEW CANAL        0400   76 77   CALM  /  2 1012.1
SHELL BEACH      0400   77 76  130/  8/  9 1011.6

OFFSHORE STATIONS

STATION/POSITION TIME  TEMP    WIND        PRES    WAVE
                       AIR SEA DIR/SP/G            HT/PER
                 (UTC) (F)     (DEG/KT/KT) (MB)    (FT/S)
64 S DAUPHIN ISL 0354   79 82  100/ 10/ 12 1012.4    2/ 5

$$




USA.gov is the U.S. government's official web portal to all federal, state and local government web resources and services.